Location: Beaurecueil
(43.5122°N, 5.5450°E)
Time: 01:26:52
(UTC+00:00)

NOSS 3-2 (C) - Pass Details

Date: 18 September 2020
Orbit: 795 x 1418 km, 63.4° (Epoch: 25 October)

Event Time Altitude Azimuth Distance (km) Brightness Sun altitude
Rises 20:35:01 0° 322° (NW) 4,001 7.8 -30.2°
Reaches altitude 10° 20:37:36 10° 321° (NW) 3,120 7.0 -30.6°
Maximum altitude 20:45:14 78° 237° (WSW) 1,336 4.0 -31.7°
Enters shadow 20:46:12 70° 182° (S) 1,396 4.0 -31.8°
